GW0870 Weather Reports


Display with metric or nautical units.
time (UTC)temp
F
wind
direction
speed
MPH
gust
MPH
rain 1hr
in
rain 24hr
in
rain mn
in
humidity
%
barometer
mb
20260504081541 41 0 0.0 0.0 0.00 0.00 0.00 92 1016.5
20260504044556 44 0 0.0 0.0 0.00 0.00 0.00 85 1016.8
20260504043044 44 0 0.0 0.0 0.00 0.00 0.00 85 1016.8
20260504041540 45 0 0.0 0.0 0.00 0.00 0.00 83 1017.0
20260504040050 45 0 0.0 0.0 0.00 0.00 0.00 82 1017.1
20260504034552 45 0 0.0 0.0 0.00 0.00 0.00 82 1017.1
20260504033054 45 0 0.0 0.0 0.00 0.00 0.00 80 1017.1
20260504031543 46 0 0.0 0.0 0.00 0.00 0.00 79 1017.2
20260504030041 46 0 0.0 0.0 0.00 0.00 0.00 79 1017.1
20260504024546 47 0 0.0 0.0 0.00 0.00 0.00 77 1017.0
20260504023048 48 0 0.0 0.0 0.00 0.00 0.00 75 1016.9
20260504021538 48 0 0.0 0.0 0.00 0.00 0.00 73 1016.6
20260504020043 49 0 0.0 0.0 0.00 0.00 0.00 70 1016.4
20260504014542 50 0 0.0 0.0 0.00 0.00 0.00 69 1016.4
20260504013048 51 0 0.0 0.0 0.00 0.00 0.00 68 1016.2
20260504011540 52 0 0.0 0.0 0.00 0.00 0.00 65 1016.0
20260504010051 53 0 0.0 0.0 0.00 0.00 0.00 61 1015.8
20260504004544 55 0 0.0 0.0 0.00 0.00 0.00 59 1015.7
20260504003043 57 0 0.0 0.0 0.00 0.00 0.00 54 1015.7
20260504001602 59 0 0.0 0.0 0.00 0.00 0.00 51 1015.6
20260504000044 62 0 0.0 0.0 0.00 0.00 0.00 47 1015.4
20260503234541 64 0 0.0 0.0 0.00 0.00 0.00 41 1015.4
20260503233038 65 0 0.0 1.0 0.00 0.00 0.00 36 1015.4
20260503231544 66 162 0.0 3.0 0.00 0.00 0.00 34 1015.5
20260503230044 68 211 1.0 3.0 0.00 0.00 0.00 31 1015.4
20260503224542 68 154 1.0 5.0 0.00 0.00 0.00 30 1015.5
20260503223049 69 216 0.0 7.0 0.00 0.00 0.00 30 1015.6
20260503221546 70 0 1.0 4.0 0.00 0.00 0.00 31 1015.7
20260503220105 69 298 1.0 7.0 0.00 0.00 0.00 30 1015.9
20260503214546 71 302 0.0 7.0 0.00 0.00 0.00 29 1015.9
20260503213049 71 313 0.0 4.0 0.00 0.00 0.00 31 1016.0
20260503211558 70 244 1.0 6.0 0.00 0.00 0.00 30 1016.1
20260503210052 71 277 1.0 4.0 0.00 0.00 0.00 29 1016.2
20260503204553 69 0 2.0 5.0 0.00 0.00 0.00 30 1016.3
20260503203050 69 295 1.0 10.0 0.00 0.00 0.00 30 1016.8
20260503201547 69 202 1.0 4.0 0.00 0.00 0.00 30 1016.7
20260503200050 69 253 2.0 6.0 0.00 0.00 0.00 30 1017.2
20260503194550 69 103 0.0 8.0 0.00 0.00 0.00 32 1017.2
20260503193050 68 57 1.0 4.0 0.00 0.00 0.00 32 1017.5
20260503191548 68 0 0.0 4.0 0.00 0.00 0.00 29 1017.8
20260503190049 67 144 2.0 6.0 0.00 0.00 0.00 28 1018.0
20260503184545 66 203 4.0 11.0 0.00 0.00 0.00 29 1018.2
20260503183043 66 102 4.0 9.0 0.00 0.00 0.00 29 1018.3
20260503181617 65 221 2.0 8.0 0.00 0.00 0.00 29 1018.4
20260503180100 66 199 1.0 7.0 0.00 0.00 0.00 31 1018.5
20260503174555 65 30 2.0 6.0 0.00 0.00 0.00 33 1018.9
20260503173056 65 240 2.0 9.0 0.00 0.00 0.00 34 1019.2
20260503171551 64 200 1.0 8.0 0.00 0.00 0.00 33 1019.3
20260503120105 43 0 0.0 1.0 0.00 0.00 0.00 80 1019.7
20260503100104 37 0 0.0 0.0 0.00 0.00 0.00 91 1018.0